Location: Nassau
(25.0830°N, 77.3500°W)
Time: 20:56:10
(UTC-04:00)

ISS - All Passes

Search period start: 21 April 2018 00:00
Search period end: 01 May 2018 00:00
Orbit: 403 x 406 km, 51.6° (Epoch: 22 April)

Date Brightness Start Highest point End Pass type
(mag) Time Alt. Az. Time Alt. Az. Time Alt. Az.
21 Apr - 07:44:23 10° SSE 07:46:17 15° SE 07:48:12 10° E daylight
21 Apr - 09:19:47 10° WSW 09:22:33 25° NW 09:25:20 10° NNE daylight
21 Apr - 17:29:51 10° NW 17:33:07 70° NE 17:36:22 10° SE daylight
22 Apr - 08:27:04 10° SW 08:30:16 61° NW 08:33:30 10° NNE daylight
22 Apr - 16:37:58 10° NNW 16:40:51 28° NE 16:43:44 10° ESE daylight
22 Apr - 18:15:27 10° W 18:17:05 13° SW 18:18:43 10° SSW daylight
23 Apr - 07:34:57 10° SSW 07:38:05 49° SE 07:41:15 10° NE daylight
23 Apr - 15:46:40 10° N 15:48:29 14° NE 15:50:19 10° ENE daylight
23 Apr - 17:22:03 10° WNW 17:24:59 30° SW 17:27:54 10° S daylight
24 Apr - 06:43:31 10° S 06:45:57 20° SE 06:48:24 10° ENE daylight
24 Apr - 08:19:51 10° W 08:22:18 20° NW 08:24:47 10° N daylight
24 Apr - 16:29:32 10° NW 16:32:48 82° SW 16:36:04 10° SE daylight
25 Apr - 07:26:51 10° WSW 07:29:58 43° NW 07:33:06 10° NNE daylight
25 Apr - 15:37:27 10° NNW 15:40:33 38° NE 15:43:37 10° ESE daylight
26 Apr - 06:34:29 10° SW 06:37:42 70° SE 06:40:56 10° NE daylight
26 Apr - 14:45:51 10° N 14:48:10 18° NE 14:50:29 10° E daylight
26 Apr - 16:21:56 10° WNW 16:24:34 22° SW 16:27:12 10° S daylight
27 Apr - 05:42:43 10° S 05:45:31 26° SE 05:48:18 10° ENE visible
27 Apr - 07:19:55 10° W 07:21:58 15° NW 07:24:00 10° N daylight
27 Apr - 15:29:10 10° NW 15:32:23 57° SW 15:35:35 10° SSE daylight
28 Apr - 04:52:14 10° SE 04:53:22 11° SE 04:54:30 10° ESE visible
28 Apr - 06:26:36 10° WSW 06:29:33 32° NW 06:32:31 10° NNE daylight
28 Apr - 14:36:54 10° NNW 14:40:06 52° NE 14:43:18 10° SE daylight
29 Apr - 05:33:59 10° SW 05:37:13 82° NW 05:40:29 10° NE visible
29 Apr - 13:45:04 10° N 13:47:43 23° NE 13:50:23 10° E daylight
29 Apr - 15:21:50 10° W 15:24:02 17° SW 15:26:13 10° SSW daylight
30 Apr - 04:41:57 10° SSW 04:44:58 36° SE 04:47:59 10° ENE visible
30 Apr - 06:20:06 10° WNW 06:21:30 12° NW 06:22:55 10° NNW daylight
30 Apr - 12:54:05 10° NNE 12:55:15 11° NE 12:56:24 10° ENE daylight
30 Apr - 14:28:44 10° WNW 14:31:49 40° SW 14:34:54 10° SSE daylight
